Terug naar catalogus

STARLINK-34894

ActiefCommunicatieVLEO
NORAD 65753·PAYLOAD·🇺🇸 United States

Gelanceerd Sep 25, 2025 vanaf Cape Canaveral Space Force Station

Loading…

Volgende Passages (komende 24 uur)

TLE

VersSource: CelesTrak SupGP

Epoch: Sep 15, 2026, 03:29 UTC

1 65753C 25216V   26258.14562500 -.00122950  00000+0 -36361-2 0  2587
2 65753  53.1569 170.9780 0001212  84.4737  40.8165 15.34422922    17

Volg STARLINK-34894 in realtime met AllMySat

Download on the App Store